San Antonio, TX

7:37 AM CST on January 18, 2017 (GMT -0600)
San Antonio International

Weather History for KSAT - June, 2013

Change the Weather History Date:

Thursday, June 20, 2013

  Actual Average Record
Temperature  
Mean Temperature 86 °F 83 °F  
Max Temperature 95 °F 93 °F 103 °F (1996)
Min Temperature 76 °F 73 °F 59 °F (1912)
Degree Days  
Heating Degree Days 0 0  
Month to date heating degree days 0 0  
Since 1 June heating degree days 0 0  
Since 1 July heating degree days 1206 1496  
Cooling Degree Days 21 18  
Month to date cooling degree days 349 339  
Year to date cooling degree days 966 968  
Since 1 June cooling degree days 349 339  
Growing Degree Days 35 (Base 50)    
Moisture  
Dew Point 71 °F    
Average Humidity 66    
Maximum Humidity 87    
Minimum Humidity 44    
Precipitation  
Precipitation 0.00 in 0.15 in 1.52 in (1955)
Month to date precipitation 1.65 2.82  
Year to date precipitation 21.49 14.79  
Snow  
Snow 0.00 in - - ()
Month to date snowfall 0.0  
Since 1 June snowfall 0.0  
Since 1 July snowfall T  
Snow Depth 0.00 in    
Sea Level Pressure  
Sea Level Pressure 29.96 in    
Wind  
Wind Speed 12 mph (SSE)    
Max Wind Speed 21 mph    
Max Gust Speed 26 mph    
Visibility 10 miles    
Events      
T = Trace of Precipitation, MM = Missing Value Source: NWS Daily Summary

Daily Weather History Graph

Daily Weather History Graph

Search for Another Location

Airport or City:

Trip Planner

Search our weather history database for the weather conditions in past years. The results will help you decide how hot, cold, wet, or windy it might be!

Date:

Astronomy

Jun. 20, 2013 Rise Set
Actual Time 6:34 AM CDT 8:36 PM CDT
Civil Twilight 6:07 AM CDT 9:04 PM CDT
Nautical Twilight 5:33 AM CDT 9:37 PM CDT
Astronomical Twilight 4:58 AM CDT 10:12 PM CDT
Moon 5:48 PM CDT (6/20) 3:52 AM CDT (6/20)
Length of Visible Light 14h 57m
Length of Day
14h 02m
Waxing Gibbous, 89% of the Moon is Illuminated
Jun 20
Waxing Gibbous
Jun 23
Full
Jun 29
Last Quarter
Jul 8
New
Jul 15
First Quarter

Hourly Weather History & Observations

Time (CDT) Temp. Heat Index Dew Point Humidity Pressure Visibility Wind Dir Wind Speed Gust Speed Precip Events Conditions
12:51 AM 80.1 °F 83.6 °F 71.1 °F 74% 29.95 in 10.0 mi South 12.7 mph - N/A   Scattered Clouds
1:51 AM 79.0 °F - 71.1 °F 77% 29.93 in 10.0 mi South 8.1 mph - N/A   Scattered Clouds
2:51 AM 78.1 °F - 70.0 °F 76% 29.92 in 10.0 mi South 8.1 mph - N/A   Scattered Clouds
3:51 AM 77.0 °F - 71.1 °F 82% 29.92 in 10.0 mi South 8.1 mph - N/A   Scattered Clouds
4:51 AM 75.9 °F - 72.0 °F 87% 29.92 in 10.0 mi South 6.9 mph - N/A   Scattered Clouds
5:18 AM 77.0 °F - 71.6 °F 83% 29.98 in 10.0 mi SSE 8.1 mph - N/A   Mostly Cloudy
5:51 AM 77.0 °F - 72.0 °F 84% 29.94 in 10.0 mi South 9.2 mph - N/A   Mostly Cloudy
6:36 AM 78.8 °F - 71.6 °F 78% 30.01 in 9.0 mi South 6.9 mph - N/A   Overcast
6:51 AM 78.1 °F - 72.0 °F 81% 29.96 in 9.0 mi South 9.2 mph - N/A   Overcast
7:51 AM 79.0 °F - 73.0 °F 82% 29.98 in 9.0 mi South 8.1 mph - N/A   Mostly Cloudy
8:51 AM 80.1 °F 84.2 °F 73.0 °F 79% 30.00 in 10.0 mi South 9.2 mph - N/A   Mostly Cloudy
9:51 AM 82.0 °F 86.7 °F 72.0 °F 71% 30.02 in 10.0 mi South 12.7 mph - N/A   Mostly Cloudy
10:51 AM 84.0 °F 89.6 °F 72.0 °F 67% 30.02 in 10.0 mi South 13.8 mph 21.9 mph N/A   Mostly Cloudy
11:51 AM 88.0 °F 93.8 °F 71.1 °F 57% 30.02 in 10.0 mi South 15.0 mph 21.9 mph N/A   Mostly Cloudy
12:51 PM 89.1 °F 94.1 °F 70.0 °F 53% 30.00 in 10.0 mi South 16.1 mph 23.0 mph N/A   Mostly Cloudy
1:51 PM 91.0 °F 95.6 °F 69.1 °F 48% 29.99 in 10.0 mi SSE 13.8 mph 21.9 mph N/A   Mostly Cloudy
2:51 PM 91.9 °F 96.9 °F 69.1 °F 47% 29.97 in 10.0 mi SSE 12.7 mph - N/A   Scattered Clouds
3:51 PM 91.9 °F 95.4 °F 66.9 °F 44% 29.95 in 10.0 mi SSE 13.8 mph 20.7 mph N/A   Scattered Clouds
4:51 PM 93.0 °F 97.9 °F 69.1 °F 45% 29.93 in 10.0 mi SE 11.5 mph - N/A   Scattered Clouds
5:51 PM 93.0 °F 99.0 °F 70.0 °F 47% 29.91 in 10.0 mi SSE 10.4 mph - N/A   Partly Cloudy
6:51 PM 91.9 °F 95.9 °F 68.0 °F 45% 29.91 in 10.0 mi SSE 13.8 mph - N/A   Scattered Clouds
7:51 PM 90.0 °F 92.8 °F 66.9 °F 46% 29.91 in 10.0 mi SE 15.0 mph - N/A   Clear
8:51 PM 88.0 °F 91.4 °F 68.0 °F 51% 29.92 in 10.0 mi SE 15.0 mph - N/A   Clear
9:51 PM 84.9 °F 90.7 °F 72.0 °F 65% 29.95 in 10.0 mi SE 15.0 mph - N/A   Partly Cloudy
10:51 PM 82.9 °F 88.0 °F 72.0 °F 69% 29.99 in 10.0 mi SE 10.4 mph - N/A   Partly Cloudy
11:51 PM 81.0 °F 85.8 °F 73.0 °F 77% 30.02 in 10.0 mi SSE 10.4 mph - N/A   Partly Cloudy